Time,TemperatureF,DewpointF,PressureIn,WindDirection,WindDirectionDegrees,WindSpeedMPH,WindSpeedGustMPH,Humidity,HourlyPrecipIn,Conditions,Clouds,dailyrainin,SoftwareType,DateUTC
2013-03-04 00:00:00,28.5,15.6,30.00,WNW,300,4.0,12.0,58,0.00,,---,0.00,VWS V14.01,2013-03-04 05:00:00,
2013-03-04 00:05:00,28.5,15.6,30.00,NW,304,4.0,6.0,58,0.00,,---,0.00,VWS V14.01,2013-03-04 05:05:00,
2013-03-04 00:10:00,28.5,15.6,30.00,WNW,303,3.0,6.0,58,0.00,,---,0.00,VWS V14.01,2013-03-04 05:10:00,
2013-03-04 00:15:00,28.5,15.6,30.00,West,279,4.0,6.0,58,0.00,,---,0.00,VWS V14.01,2013-03-04 05:15:00,
2013-03-04 00:20:00,28.4,15.1,30.00,WNW,295,2.0,6.0,57,0.00,,---,0.00,VWS V14.01,2013-03-04 05:20:00,
2013-03-04 00:25:00,28.4,15.1,30.00,NW,310,1.0,6.0,57,0.00,,---,0.00,VWS V14.01,2013-03-04 05:25:00,
2013-03-04 00:30:00,28.3,15.0,30.00,West,269,3.0,8.0,57,0.00,,---,0.00,VWS V14.01,2013-03-04 05:30:00,
2013-03-04 00:35:00,28.3,15.0,30.01,WNW,300,0.0,5.0,57,0.00,,---,0.00,VWS V14.01,2013-03-04 05:35:00,
2013-03-04 00:40:00,28.2,14.9,30.00,WNW,300,5.0,5.0,57,0.00,,---,0.00,VWS V14.01,2013-03-04 05:40:00,
2013-03-04 00:45:00,28.2,14.9,30.00,WNW,303,2.0,6.0,57,0.00,,---,0.00,VWS V14.01,2013-03-04 05:45:00,
2013-03-04 00:50:00,28.1,14.8,30.00,WNW,302,3.0,6.0,57,0.00,,---,0.00,VWS V14.01,2013-03-04 05:50:00,
2013-03-04 00:55:00,28.0,14.8,30.01,WNW,302,3.0,6.0,57,0.00,,---,0.00,VWS V14.01,2013-03-04 05:55:00,
2013-03-04 01:00:00,28.0,14.8,30.01,WNW,302,1.0,6.0,57,0.00,,---,0.00,VWS V14.01,2013-03-04 06:00:00,
2013-03-04 01:05:00,27.9,15.1,30.01,WNW,302,0.0,2.0,58,0.00,,---,0.00,VWS V14.01,2013-03-04 06:05:00,
2013-03-04 01:10:00,27.9,15.1,30.01,WNW,302,1.0,2.0,58,0.00,,---,0.00,VWS V14.01,2013-03-04 06:10:00,
2013-03-04 01:15:00,27.8,15.0,30.01,WNW,302,1.0,3.0,58,0.00,,---,0.00,VWS V14.01,2013-03-04 06:15:00,
2013-03-04 01:20:00,27.7,14.9,30.01,WNW,302,0.0,3.0,58,0.00,,---,0.00,VWS V14.01,2013-03-04 06:20:00,
2013-03-04 01:25:00,27.6,15.2,30.01,WNW,302,1.0,4.0,59,0.00,,---,0.00,VWS V14.01,2013-03-04 06:25:00,
2013-03-04 01:30:00,27.6,15.2,30.01,WSW,248,2.0,4.0,59,0.00,,---,0.00,VWS V14.01,2013-03-04 06:30:00,
2013-03-04 01:35:00,27.6,14.8,30.01,WNW,303,2.0,7.0,58,0.00,,---,0.00,VWS V14.01,2013-03-04 06:35:00,
2013-03-04 01:40:00,27.6,14.8,30.01,WNW,297,3.0,7.0,58,0.00,,---,0.00,VWS V14.01,2013-03-04 06:40:00,
2013-03-04 01:45:00,27.5,14.7,30.01,West,273,3.0,7.0,58,0.00,,---,0.00,VWS V14.01,2013-03-04 06:45:00,
2013-03-04 01:50:00,27.4,14.6,30.01,WNW,296,5.0,9.0,58,0.00,,---,0.00,VWS V14.01,2013-03-04 06:50:00,
2013-03-04 01:55:00,27.3,14.5,30.01,West,261,2.0,10.0,58,0.00,,---,0.00,VWS V14.01,2013-03-04 06:55:00,
2013-03-04 02:00:00,27.2,14.0,30.01,West,269,3.0,10.0,57,0.00,,---,0.00,VWS V14.01,2013-03-04 07:00:00,
2013-03-04 02:05:00,27.2,14.0,30.01,NW,325,2.0,5.0,57,0.00,,---,0.00,VWS V14.01,2013-03-04 07:05:00,
2013-03-04 02:10:00,27.0,14.2,30.01,NW,325,0.0,5.0,58,0.00,,---,0.00,VWS V14.01,2013-03-04 07:10:00,
2013-03-04 02:15:00,26.7,13.9,30.01,West,275,2.0,6.0,58,0.00,,---,0.00,VWS V14.01,2013-03-04 07:15:00,
2013-03-04 02:20:00,26.6,14.2,30.01,WNW,288,2.0,6.0,59,0.00,,---,0.00,VWS V14.01,2013-03-04 07:20:00,
2013-03-04 02:25:00,26.5,14.1,30.01,WNW,291,3.0,6.0,59,0.00,,---,0.00,VWS V14.01,2013-03-04 07:25:00,
2013-03-04 02:30:00,26.4,14.0,30.01,WNW,298,4.0,6.0,59,0.00,,---,0.00,VWS V14.01,2013-03-04 07:30:00,
2013-03-04 02:35:00,26.5,13.7,30.01,WNW,303,1.0,5.0,58,0.00,,---,0.00,VWS V14.01,2013-03-04 07:35:00,
2013-03-04 02:40:00,26.4,13.6,30.01,NNW,336,4.0,5.0,58,0.00,,---,0.00,VWS V14.01,2013-03-04 07:40:00,
2013-03-04 02:45:00,26.2,13.8,30.01,NW,311,4.0,6.0,59,0.00,,---,0.00,VWS V14.01,2013-03-04 07:45:00,
2013-03-04 02:50:00,26.0,14.0,30.01,NW,304,3.0,6.0,60,0.00,,---,0.00,VWS V14.01,2013-03-04 07:50:00,
2013-03-04 02:55:00,25.9,13.9,30.01,NW,317,3.0,6.0,60,0.00,,---,0.00,VWS V14.01,2013-03-04 07:55:00,
2013-03-04 03:00:00,25.8,13.9,30.01,NW,319,2.0,6.0,60,0.00,,---,0.00,VWS V14.01,2013-03-04 08:00:00,
2013-03-04 03:05:00,25.6,13.7,30.01,NW,322,2.0,5.0,60,0.00,,---,0.00,VWS V14.01,2013-03-04 08:05:00,
2013-03-04 03:10:00,25.6,13.7,30.01,NW,325,2.0,5.0,60,0.00,,---,0.00,VWS V14.01,2013-03-04 08:10:00,
2013-03-04 03:15:00,25.7,13.4,30.01,NW,311,3.0,11.0,59,0.00,,---,0.00,VWS V14.01,2013-03-04 08:15:00,
2013-03-04 03:20:00,25.8,13.5,30.01,NW,319,3.0,11.0,59,0.00,,---,0.00,VWS V14.01,2013-03-04 08:20:00,
2013-03-04 03:25:00,25.7,13.4,30.01,NNW,329,2.0,11.0,59,0.00,,---,0.00,VWS V14.01,2013-03-04 08:25:00,
2013-03-04 03:30:00,25.6,13.3,30.02,NNW,329,1.0,11.0,59,0.00,,---,0.00,VWS V14.01,2013-03-04 08:30:00,
2013-03-04 03:35:00,25.5,13.6,30.02,NNW,328,1.0,4.0,60,0.00,,---,0.00,VWS V14.01,2013-03-04 08:35:00,
2013-03-04 03:40:00,25.4,13.1,30.02,NNW,328,2.0,4.0,59,0.00,,---,0.00,VWS V14.01,2013-03-04 08:40:00,
2013-03-04 03:45:00,25.4,13.1,30.02,NNW,328,0.0,4.0,59,0.00,,---,0.00,VWS V14.01,2013-03-04 08:45:00,
2013-03-04 03:50:00,25.3,13.4,30.02,NNW,328,1.0,4.0,60,0.00,,---,0.00,VWS V14.01,2013-03-04 08:50:00,
2013-03-04 03:55:00,25.2,13.3,30.02,WNW,298,3.0,5.0,60,0.00,,---,0.00,VWS V14.01,2013-03-04 08:55:00,
2013-03-04 04:00:00,25.4,13.5,30.02,WNW,303,4.0,8.0,60,0.00,,---,0.00,VWS V14.01,2013-03-04 09:00:00,
2013-03-04 04:05:00,25.4,13.5,30.02,NW,313,0.0,4.0,60,0.00,,---,0.00,VWS V14.01,2013-03-04 09:05:00,
2013-03-04 04:10:00,25.1,13.2,30.02,NW,313,0.0,4.0,60,0.00,,---,0.00,VWS V14.01,2013-03-04 09:10:00,
2013-03-04 04:15:00,24.8,13.3,30.02,NW,313,1.0,4.0,61,0.00,,---,0.00,VWS V14.01,2013-03-04 09:15:00,
2013-03-04 04:20:00,24.6,13.1,30.03,WSW,242,1.0,4.0,61,0.00,,---,0.00,VWS V14.01,2013-03-04 09:20:00,
2013-03-04 04:25:00,24.6,13.1,30.03,NNW,336,1.0,5.0,61,0.00,,---,0.00,VWS V14.01,2013-03-04 09:25:00,
2013-03-04 04:30:00,24.6,13.1,30.03,NNW,336,1.0,5.0,61,0.00,,---,0.00,VWS V14.01,2013-03-04 09:30:00,
2013-03-04 04:35:00,24.5,12.6,30.03,NNW,335,1.0,4.0,60,0.00,,---,0.00,VWS V14.01,2013-03-04 09:35:00,
2013-03-04 04:40:00,24.6,12.7,30.03,NNW,336,3.0,7.0,60,0.00,,---,0.00,VWS V14.01,2013-03-04 09:40:00,
2013-03-04 04:45:00,24.8,12.9,30.03,NW,325,5.0,9.0,60,0.00,,---,0.00,VWS V14.01,2013-03-04 09:45:00,
2013-03-04 04:50:00,24.8,12.9,30.03,NW,326,2.0,9.0,60,0.00,,---,0.00,VWS V14.01,2013-03-04 09:50:00,
2013-03-04 04:55:00,24.6,12.7,30.04,NW,323,1.0,9.0,60,0.00,,---,0.00,VWS V14.01,2013-03-04 09:55:00,
2013-03-04 05:00:00,24.4,12.5,30.04,WNW,298,5.0,9.0,60,0.00,,---,0.00,VWS V14.01,2013-03-04 10:00:00,
2013-03-04 05:05:00,24.2,12.7,30.04,NW,321,3.0,5.0,61,0.00,,---,0.00,VWS V14.01,2013-03-04 10:05:00,
2013-03-04 05:10:00,24.5,12.6,30.04,WNW,291,4.0,9.0,60,0.00,,---,0.00,VWS V14.01,2013-03-04 10:10:00,
2013-03-04 05:15:00,24.7,12.8,30.05,NW,313,2.0,9.0,60,0.00,,---,0.00,VWS V14.01,2013-03-04 10:15:00,
2013-03-04 05:20:00,24.4,12.5,30.05,NW,315,0.0,9.0,60,0.00,,---,0.00,VWS V14.01,2013-03-04 10:20:00,
2013-03-04 05:25:00,24.1,12.6,30.05,NW,314,0.0,9.0,61,0.00,,---,0.00,VWS V14.01,2013-03-04 10:25:00,
2013-03-04 05:30:00,23.8,12.3,30.05,NW,315,0.0,9.0,61,0.00,,---,0.00,VWS V14.01,2013-03-04 10:30:00,
2013-03-04 05:35:00,23.8,12.3,30.05,NW,315,0.0,3.0,61,0.00,,---,0.00,VWS V14.01,2013-03-04 10:35:00,
2013-03-04 05:40:00,23.6,12.1,30.05,NW,314,0.0,3.0,61,0.00,,---,0.00,VWS V14.01,2013-03-04 10:40:00,
2013-03-04 05:45:00,23.4,11.9,30.06,NW,315,0.0,4.0,61,0.00,,---,0.00,VWS V14.01,2013-03-04 10:45:00,
2013-03-04 05:50:00,23.4,11.9,30.06,NNW,342,2.0,4.0,61,0.00,,---,0.00,VWS V14.01,2013-03-04 10:50:00,
2013-03-04 05:55:00,23.4,12.3,30.06,NNW,342,2.0,4.0,62,0.00,,---,0.00,VWS V14.01,2013-03-04 10:55:00,
2013-03-04 06:00:00,23.4,12.3,30.06,NW,315,2.0,5.0,62,0.00,,---,0.00,VWS V14.01,2013-03-04 11:00:00,
2013-03-04 06:05:00,23.3,12.2,30.06,NW,315,1.0,2.0,62,0.00,,---,0.00,VWS V14.01,2013-03-04 11:05:00,
2013-03-04 06:10:00,23.0,11.9,30.06,NW,315,0.0,2.0,62,0.00,,---,0.00,VWS V14.01,2013-03-04 11:10:00,
2013-03-04 06:15:00,22.8,11.8,30.07,NW,312,0.0,2.0,62,0.00,,---,0.00,VWS V14.01,2013-03-04 11:15:00,
2013-03-04 06:20:00,23.1,11.7,30.07,WNW,294,0.0,5.0,61,0.00,,---,0.00,VWS V14.01,2013-03-04 11:20:00,
2013-03-04 06:25:00,23.5,11.7,30.06,NW,304,2.0,5.0,60,0.00,,---,0.00,VWS V14.01,2013-03-04 11:25:00,
2013-03-04 06:30:00,23.9,11.7,30.07,NW,317,4.0,10.0,59,0.00,,---,0.00,VWS V14.01,2013-03-04 11:30:00,
2013-03-04 06:35:00,23.9,11.7,30.07,WNW,294,3.0,6.0,59,0.00,,---,0.00,VWS V14.01,2013-03-04 11:35:00,
2013-03-04 06:40:00,24.0,11.4,30.07,WNW,286,5.0,9.0,58,0.00,,---,0.00,VWS V14.01,2013-03-04 11:40:00,
2013-03-04 06:45:00,24.2,11.6,30.07,NW,310,4.0,9.0,58,0.00,,---,0.00,VWS V14.01,2013-03-04 11:45:00,
2013-03-04 06:50:00,24.3,11.7,30.07,NW,309,3.0,10.0,58,0.00,,---,0.00,VWS V14.01,2013-03-04 11:50:00,
2013-03-04 06:55:00,24.3,11.7,30.07,NW,311,2.0,10.0,58,0.00,,---,0.00,VWS V14.01,2013-03-04 11:55:00,
2013-03-04 07:00:00,24.2,11.6,30.07,NNW,345,3.0,10.0,58,0.00,,---,0.00,VWS V14.01,2013-03-04 12:00:00,
2013-03-04 07:05:00,24.3,11.7,30.07,West,274,6.0,11.0,58,0.00,,---,0.00,VWS V14.01,2013-03-04 12:05:00,
2013-03-04 07:10:00,24.4,11.8,30.07,NNW,331,2.0,11.0,58,0.00,,---,0.00,VWS V14.01,2013-03-04 12:10:00,
2013-03-04 07:15:00,24.5,11.9,30.08,NW,323,2.0,11.0,58,0.00,,---,0.00,VWS V14.01,2013-03-04 12:15:00,
2013-03-04 07:20:00,24.7,11.6,30.08,NW,315,5.0,11.0,57,0.00,,---,0.00,VWS V14.01,2013-03-04 12:20:00,
2013-03-04 07:25:00,24.8,11.3,30.08,NW,311,3.0,11.0,56,0.00,,---,0.00,VWS V14.01,2013-03-04 12:25:00,
2013-03-04 07:30:00,24.9,11.8,30.08,NW,311,0.0,11.0,57,0.00,,---,0.00,VWS V14.01,2013-03-04 12:30:00,
2013-03-04 07:35:00,25.0,11.5,30.08,NW,323,4.0,6.0,56,0.00,,---,0.00,VWS V14.01,2013-03-04 12:35:00,
2013-03-04 07:40:00,25.2,12.1,30.08,WNW,292,2.0,6.0,57,0.00,,---,0.00,VWS V14.01,2013-03-04 12:40:00,
2013-03-04 07:45:00,25.3,11.8,30.09,WNW,301,2.0,6.0,56,0.00,,---,0.00,VWS V14.01,2013-03-04 12:45:00,
2013-03-04 07:50:00,25.5,12.0,30.09,WNW,290,3.0,6.0,56,0.00,,---,0.00,VWS V14.01,2013-03-04 12:50:00,
2013-03-04 07:55:00,25.9,12.4,30.09,South,190,1.0,6.0,56,0.00,,---,0.00,VWS V14.01,2013-03-04 12:55:00,
2013-03-04 08:00:00,26.2,12.2,30.09,South,189,2.0,6.0,55,0.00,,---,0.00,VWS V14.01,2013-03-04 13:00:00,
2013-03-04 08:05:00,26.4,12.4,30.09,SW,220,1.0,3.0,55,0.00,,---,0.00,VWS V14.01,2013-03-04 13:05:00,
2013-03-04 08:10:00,26.7,12.3,30.09,SW,219,1.0,3.0,54,0.00,,---,0.00,VWS V14.01,2013-03-04 13:10:00,
2013-03-04 08:15:00,27.1,12.7,30.10,South,188,0.0,4.0,54,0.00,,---,0.00,VWS V14.01,2013-03-04 13:15:00,
2013-03-04 08:20:00,27.6,12.7,30.09,South,188,0.0,4.0,53,0.00,,---,0.00,VWS V14.01,2013-03-04 13:20:00,
2013-03-04 08:25:00,28.0,12.7,30.10,WSW,256,2.0,4.0,52,0.00,,---,0.00,VWS V14.01,2013-03-04 13:25:00,
2013-03-04 08:29:00,27.8,12.0,30.09,WSW,257,1.0,4.0,51,0.00,,---,0.00,VWS V14.01,2013-03-04 13:29:00,
2013-03-04 08:34:00,28.4,12.6,30.09,WSW,253,0.0,3.0,51,0.00,,---,0.00,VWS V14.01,2013-03-04 13:34:00,
2013-03-04 08:39:00,29.0,12.7,30.09,WSW,240,1.0,4.0,50,0.00,,---,0.00,VWS V14.01,2013-03-04 13:39:00,
2013-03-04 08:44:00,28.8,12.5,30.09,WNW,288,3.0,4.0,50,0.00,,---,0.00,VWS V14.01,2013-03-04 13:44:00,
2013-03-04 08:49:00,28.2,12.4,30.09,WNW,283,3.0,6.0,51,0.00,,---,0.00,VWS V14.01,2013-03-04 13:49:00,
2013-03-04 08:54:00,27.8,11.6,30.09,NNE,16,4.0,6.0,50,0.00,,---,0.00,VWS V14.01,2013-03-04 13:54:00,
2013-03-04 08:59:00,27.8,12.0,30.09,WSW,241,2.0,6.0,51,0.00,,---,0.00,VWS V14.01,2013-03-04 13:59:00,
2013-03-04 09:04:00,28.1,12.3,30.10,NNW,340,5.0,9.0,51,0.00,,---,0.00,VWS V14.01,2013-03-04 14:04:00,
2013-03-04 09:09:00,28.2,12.4,30.09,NW,312,1.0,9.0,51,0.00,,---,0.00,VWS V14.01,2013-03-04 14:09:00,
2013-03-04 09:14:00,28.4,12.6,30.10,WNW,286,3.0,9.0,51,0.00,,---,0.00,VWS V14.01,2013-03-04 14:14:00,
2013-03-04 09:19:00,28.5,12.7,30.10,WSW,240,6.0,9.0,51,0.00,,---,0.00,VWS V14.01,2013-03-04 14:19:00,
2013-03-04 09:24:00,28.9,13.1,30.10,NW,304,3.0,10.0,51,0.00,,---,0.00,VWS V14.01,2013-03-04 14:24:00,
2013-03-04 09:29:00,28.8,12.5,30.10,NNW,346,1.0,10.0,50,0.00,,---,0.00,VWS V14.01,2013-03-04 14:29:00,
2013-03-04 09:34:00,29.4,13.5,30.09,NW,304,4.0,7.0,51,0.00,,---,0.00,VWS V14.01,2013-03-04 14:34:00,
2013-03-04 09:39:00,29.6,13.3,30.09,West,267,1.0,7.0,50,0.00,,---,0.00,VWS V14.01,2013-03-04 14:39:00,
2013-03-04 09:44:00,29.6,12.8,30.09,West,281,4.0,10.0,49,0.00,,---,0.00,VWS V14.01,2013-03-04 14:44:00,
2013-03-04 09:49:00,29.9,13.1,30.09,WNW,302,5.0,11.0,49,0.00,,---,0.00,VWS V14.01,2013-03-04 14:49:00,
2013-03-04 09:54:00,30.1,13.3,30.09,WSW,244,5.0,11.0,49,0.00,,---,0.00,VWS V14.01,2013-03-04 14:54:00,
2013-03-04 09:59:00,30.8,13.9,30.09,WSW,244,3.0,11.0,49,0.00,,---,0.00,VWS V14.01,2013-03-04 14:59:00,
2013-03-04 10:04:00,31.0,13.6,30.09,WNW,298,2.0,8.0,48,0.00,,---,0.00,VWS V14.01,2013-03-04 15:04:00,
2013-03-04 10:09:00,31.3,13.4,30.09,West,280,9.0,12.0,47,0.00,,---,0.00,VWS V14.01,2013-03-04 15:09:00,
2013-03-04 10:14:00,30.9,13.5,30.08,West,264,1.0,12.0,48,0.00,,---,0.00,VWS V14.01,2013-03-04 15:14:00,
2013-03-04 10:19:00,31.1,13.7,30.08,WNW,300,3.0,12.0,48,0.00,,---,0.00,VWS V14.01,2013-03-04 15:19:00,
2013-03-04 10:24:00,31.4,14.0,30.08,West,263,3.0,12.0,48,0.00,,---,0.00,VWS V14.01,2013-03-04 15:24:00,
2013-03-04 10:29:00,31.5,13.6,30.08,NW,325,4.0,17.0,47,0.00,,---,0.00,VWS V14.01,2013-03-04 15:29:00,
2013-03-04 10:34:00,32.0,14.6,30.08,NNW,335,3.0,13.0,48,0.00,,---,0.00,VWS V14.01,2013-03-04 15:34:00,
2013-03-04 10:39:00,32.4,14.4,30.08,NW,322,10.0,13.0,47,0.00,,---,0.00,VWS V14.01,2013-03-04 15:39:00,
2013-03-04 10:44:00,32.3,14.3,30.08,NW,315,6.0,13.0,47,0.00,,---,0.00,VWS V14.01,2013-03-04 15:44:00,
2013-03-04 10:49:00,32.4,14.4,30.09,NNW,344,3.0,13.0,47,0.00,,---,0.00,VWS V14.01,2013-03-04 15:49:00,
2013-03-04 10:54:00,32.6,14.1,30.08,NW,305,2.0,13.0,46,0.00,,---,0.00,VWS V14.01,2013-03-04 15:54:00,
2013-03-04 10:59:00,33.2,15.6,30.09,NW,320,6.0,13.0,48,0.00,,---,0.00,VWS V14.01,2013-03-04 15:59:00,
2013-03-04 11:04:00,33.4,15.4,30.08,NW,307,2.0,13.0,47,0.00,,---,0.00,VWS V14.01,2013-03-04 16:04:00,
2013-03-04 11:09:00,33.5,14.9,30.08,NW,315,8.0,15.0,46,0.00,,---,0.00,VWS V14.01,2013-03-04 16:09:00,
2013-03-04 11:14:00,33.7,15.1,30.08,West,276,10.0,15.0,46,0.00,,---,0.00,VWS V14.01,2013-03-04 16:14:00,
2013-03-04 11:19:00,34.2,15.6,30.08,NW,304,9.0,15.0,46,0.00,,---,0.00,VWS V14.01,2013-03-04 16:19:00,
2013-03-04 11:24:00,34.9,16.2,30.07,NW,318,6.0,15.0,46,0.00,,---,0.00,VWS V14.01,2013-03-04 16:24:00,
2013-03-04 11:29:00,35.0,15.8,30.08,WNW,293,3.0,15.0,45,0.00,,---,0.00,VWS V14.01,2013-03-04 16:29:00,
2013-03-04 11:34:00,35.2,16.0,30.08,NNW,345,3.0,7.0,45,0.00,,---,0.00,VWS V14.01,2013-03-04 16:34:00,
2013-03-04 11:39:00,35.3,15.6,30.08,WNW,288,12.0,12.0,44,0.00,,---,0.00,VWS V14.01,2013-03-04 16:39:00,
2013-03-04 11:44:00,35.1,15.9,30.07,West,259,4.0,14.0,45,0.00,,---,0.00,VWS V14.01,2013-03-04 16:44:00,
2013-03-04 11:49:00,35.1,15.4,30.07,WNW,302,2.0,14.0,44,0.00,,---,0.00,VWS V14.01,2013-03-04 16:49:00,
2013-03-04 11:54:00,35.7,15.9,30.07,WNW,293,3.0,14.0,44,0.00,,---,0.00,VWS V14.01,2013-03-04 16:54:00,
2013-03-04 11:59:00,36.4,16.6,30.06,South,175,1.0,14.0,44,0.00,,---,0.00,VWS V14.01,2013-03-04 16:59:00,
2013-03-04 12:04:00,36.9,16.5,30.05,NW,310,3.0,8.0,43,0.00,,---,0.00,VWS V14.01,2013-03-04 17:04:00,
2013-03-04 12:09:00,36.8,17.0,30.05,WNW,299,3.0,9.0,44,0.00,,---,0.00,VWS V14.01,2013-03-04 17:09:00,
2013-03-04 12:14:00,37.0,17.1,30.05,WNW,303,2.0,9.0,44,0.00,,---,0.00,VWS V14.01,2013-03-04 17:14:00,
2013-03-04 12:19:00,37.0,16.6,30.05,NW,305,2.0,10.0,43,0.00,,---,0.00,VWS V14.01,2013-03-04 17:19:00,
2013-03-04 12:24:00,37.1,16.7,30.05,NNW,338,2.0,10.0,43,0.00,,---,0.00,VWS V14.01,2013-03-04 17:24:00,
2013-03-04 12:29:00,37.5,17.0,30.05,WNW,283,6.0,12.0,43,0.00,,---,0.00,VWS V14.01,2013-03-04 17:29:00,
2013-03-04 12:34:00,37.9,17.4,30.04,West,262,2.0,9.0,43,0.00,,---,0.00,VWS V14.01,2013-03-04 17:34:00,
2013-03-04 12:39:00,38.3,18.3,30.04,NW,320,4.0,9.0,44,0.00,,---,0.00,VWS V14.01,2013-03-04 17:39:00,
2013-03-04 12:44:00,37.9,17.4,30.04,WNW,286,6.0,12.0,43,0.00,,---,0.00,VWS V14.01,2013-03-04 17:44:00,
2013-03-04 12:49:00,37.8,17.9,30.03,WNW,300,4.0,12.0,44,0.00,,---,0.00,VWS V14.01,2013-03-04 17:49:00,
2013-03-04 12:54:00,38.3,17.8,30.03,NW,304,3.0,12.0,43,0.00,,---,0.00,VWS V14.01,2013-03-04 17:54:00,
2013-03-04 12:59:00,38.4,18.4,30.03,West,259,2.0,12.0,44,0.00,,---,0.00,VWS V14.01,2013-03-04 17:59:00,
2013-03-04 13:04:00,38.9,18.9,30.03,West,261,5.0,15.0,44,0.00,,---,0.00,VWS V14.01,2013-03-04 18:04:00,
2013-03-04 13:09:00,39.2,19.1,30.03,WNW,284,6.0,15.0,44,0.00,,---,0.00,VWS V14.01,2013-03-04 18:09:00,
2013-03-04 13:14:00,39.2,18.6,30.03,WNW,290,7.0,15.0,43,0.00,,---,0.00,VWS V14.01,2013-03-04 18:14:00,
2013-03-04 13:19:00,39.3,18.1,30.02,West,263,2.0,15.0,42,0.00,,---,0.00,VWS V14.01,2013-03-04 18:19:00,
2013-03-04 13:24:00,39.9,18.7,30.02,WNW,294,2.0,15.0,42,0.00,,---,0.00,VWS V14.01,2013-03-04 18:24:00,
2013-03-04 13:29:00,40.1,18.9,30.01,NNW,338,4.0,15.0,42,0.00,,---,0.00,VWS V14.01,2013-03-04 18:29:00,
2013-03-04 13:34:00,39.8,18.6,30.01,NNW,340,6.0,11.0,42,0.00,,---,0.00,VWS V14.01,2013-03-04 18:34:00,
2013-03-04 13:39:00,40.3,19.6,30.01,NNW,340,3.0,11.0,43,0.00,,---,0.00,VWS V14.01,2013-03-04 18:39:00,
2013-03-04 13:44:00,40.7,19.4,30.01,WNW,292,3.0,11.0,42,0.00,,---,0.00,VWS V14.01,2013-03-04 18:44:00,
2013-03-04 13:49:00,41.1,19.2,30.00,WNW,299,10.0,12.0,41,0.00,,---,0.00,VWS V14.01,2013-03-04 18:49:00,
2013-03-04 13:54:00,41.1,19.8,30.00,WNW,287,4.0,12.0,42,0.00,,---,0.00,VWS V14.01,2013-03-04 18:54:00,
2013-03-04 13:59:00,41.2,18.7,30.00,NW,322,4.0,12.0,40,0.00,,---,0.00,VWS V14.01,2013-03-04 18:59:00,
2013-03-04 14:04:00,41.7,19.8,30.00,NW,313,8.0,12.0,41,0.00,,---,0.00,VWS V14.01,2013-03-04 19:04:00,
2013-03-04 14:09:00,42.0,19.5,29.99,NNW,333,7.0,12.0,40,0.00,,---,0.00,VWS V14.01,2013-03-04 19:09:00,
2013-03-04 14:14:00,42.4,20.4,30.00,West,281,7.0,12.0,41,0.00,,---,0.00,VWS V14.01,2013-03-04 19:14:00,
2013-03-04 14:19:00,42.2,19.0,30.00,NW,304,10.0,12.0,39,0.00,,---,0.00,VWS V14.01,2013-03-04 19:19:00,
2013-03-04 14:24:00,41.9,19.4,30.00,NW,321,3.0,14.0,40,0.00,,---,0.00,VWS V14.01,2013-03-04 19:24:00,
2013-03-04 14:29:00,42.1,18.3,30.00,SW,214,4.0,14.0,38,0.00,,---,0.00,VWS V14.01,2013-03-04 19:29:00,
2013-03-04 14:34:00,42.8,18.4,30.00,NW,306,3.0,10.0,37,0.00,,---,0.00,VWS V14.01,2013-03-04 19:34:00,
2013-03-04 14:39:00,43.4,18.9,30.00,NW,311,4.0,10.0,37,0.00,,---,0.00,VWS V14.01,2013-03-04 19:39:00,
2013-03-04 14:44:00,43.5,17.7,30.00,NW,323,4.0,10.0,35,0.00,,---,0.00,VWS V14.01,2013-03-04 19:44:00,
2013-03-04 14:49:00,43.5,17.7,30.00,NNW,327,4.0,10.0,35,0.00,,---,0.00,VWS V14.01,2013-03-04 19:49:00,
2013-03-04 14:54:00,43.9,18.7,30.00,WNW,288,3.0,10.0,36,0.00,,---,0.00,VWS V14.01,2013-03-04 19:54:00,
2013-03-04 14:59:00,44.0,18.1,30.00,NW,315,7.0,10.0,35,0.00,,---,0.00,VWS V14.01,2013-03-04 19:59:00,
2013-03-04 15:04:00,43.8,16.6,30.00,NNW,348,5.0,6.0,33,0.00,,---,0.00,VWS V14.01,2013-03-04 20:04:00,
2013-03-04 15:09:00,43.7,17.2,30.00,NNW,346,3.0,9.0,34,0.00,,---,0.00,VWS V14.01,2013-03-04 20:09:00,
2013-03-04 15:14:00,43.4,16.9,30.00,NW,304,0.0,10.0,34,0.00,,---,0.00,VWS V14.01,2013-03-04 20:14:00,
2013-03-04 15:19:00,43.9,17.4,30.00,NNW,330,9.0,10.0,34,0.00,,---,0.00,VWS V14.01,2013-03-04 20:19:00,
2013-03-04 15:24:00,44.2,16.9,30.00,West,272,2.0,12.0,33,0.00,,---,0.00,VWS V14.01,2013-03-04 20:24:00,
2013-03-04 15:29:00,44.2,16.2,30.00,NW,316,6.0,13.0,32,0.00,,---,0.00,VWS V14.01,2013-03-04 20:29:00,
2013-03-04 15:34:00,43.8,15.9,30.01,West,269,3.0,8.0,32,0.00,,---,0.00,VWS V14.01,2013-03-04 20:34:00,
2013-03-04 15:39:00,44.4,17.1,30.00,NW,321,4.0,8.0,33,0.00,,---,0.00,VWS V14.01,2013-03-04 20:39:00,
2013-03-04 15:44:00,44.0,16.8,30.00,NW,320,6.0,14.0,33,0.00,,---,0.00,VWS V14.01,2013-03-04 20:44:00,
2013-03-04 15:49:00,43.7,16.5,30.00,NNW,327,6.0,14.0,33,0.00,,---,0.00,VWS V14.01,2013-03-04 20:49:00,
2013-03-04 15:54:00,43.8,17.3,30.00,NW,314,5.0,14.0,34,0.00,,---,0.00,VWS V14.01,2013-03-04 20:54:00,
2013-03-04 15:59:00,44.2,16.9,30.00,WNW,284,5.0,14.0,33,0.00,,---,0.00,VWS V14.01,2013-03-04 20:59:00,
2013-03-04 16:04:00,43.9,16.7,30.00,NNW,346,5.0,12.0,33,0.00,,---,0.00,VWS V14.01,2013-03-04 21:04:00,
2013-03-04 16:09:00,43.8,16.6,30.00,WNW,299,5.0,12.0,33,0.00,,---,0.00,VWS V14.01,2013-03-04 21:09:00,
2013-03-04 16:14:00,44.0,17.5,30.00,NW,306,12.0,12.0,34,0.00,,---,0.00,VWS V14.01,2013-03-04 21:14:00,
2013-03-04 16:19:00,43.9,16.7,30.00,NNW,345,7.0,14.0,33,0.00,,---,0.00,VWS V14.01,2013-03-04 21:19:00,
2013-03-04 16:24:00,43.7,17.2,30.00,WNW,298,6.0,14.0,34,0.00,,---,0.00,VWS V14.01,2013-03-04 21:24:00,
2013-03-04 16:29:00,44.0,18.1,30.00,NW,325,9.0,14.0,35,0.00,,---,0.00,VWS V14.01,2013-03-04 21:29:00,
2013-03-04 16:34:00,44.1,16.9,30.00,North,5,6.0,10.0,33,0.00,,---,0.00,VWS V14.01,2013-03-04 21:34:00,
2013-03-04 16:39:00,43.9,16.7,30.00,NNW,343,7.0,13.0,33,0.00,,---,0.00,VWS V14.01,2013-03-04 21:39:00,
2013-03-04 16:44:00,43.7,16.5,30.00,NNW,333,5.0,13.0,33,0.00,,---,0.00,VWS V14.01,2013-03-04 21:44:00,
2013-03-04 16:49:00,43.9,16.7,30.00,NNW,348,6.0,13.0,33,0.00,,---,0.00,VWS V14.01,2013-03-04 21:49:00,
2013-03-04 16:54:00,44.0,16.8,30.00,WNW,289,10.0,13.0,33,0.00,,---,0.00,VWS V14.01,2013-03-04 21:54:00,
2013-03-04 16:59:00,43.7,15.8,30.00,NNW,338,7.0,15.0,32,0.00,,---,0.00,VWS V14.01,2013-03-04 21:59:00,
2013-03-04 17:04:00,43.6,17.1,30.01,WNW,302,6.0,8.0,34,0.00,,---,0.00,VWS V14.01,2013-03-04 22:04:00,
2013-03-04 17:09:00,43.5,17.0,30.00,WNW,300,3.0,10.0,34,0.00,,---,0.00,VWS V14.01,2013-03-04 22:09:00,
2013-03-04 17:14:00,43.3,16.1,30.01,NW,319,4.0,12.0,33,0.00,,---,0.00,VWS V14.01,2013-03-04 22:14:00,
2013-03-04 17:19:00,43.1,16.7,30.01,NNW,331,10.0,12.0,34,0.00,,---,0.00,VWS V14.01,2013-03-04 22:19:00,
2013-03-04 17:24:00,43.0,15.9,30.01,NW,315,9.0,12.0,33,0.00,,---,0.00,VWS V14.01,2013-03-04 22:24:00,
2013-03-04 17:29:00,42.8,15.7,30.01,WNW,303,5.0,12.0,33,0.00,,---,0.00,VWS V14.01,2013-03-04 22:29:00,
2013-03-04 17:34:00,42.5,16.1,30.01,NNW,338,4.0,10.0,34,0.00,,---,0.00,VWS V14.01,2013-03-04 22:34:00,
2013-03-04 17:39:00,42.3,15.9,30.02,NNW,344,6.0,11.0,34,0.00,,---,0.00,VWS V14.01,2013-03-04 22:39:00,
2013-03-04 17:44:00,42.0,15.7,30.02,NNW,342,7.0,11.0,34,0.00,,---,0.00,VWS V14.01,2013-03-04 22:44:00,
2013-03-04 17:49:00,41.7,16.1,30.02,NNW,333,4.0,11.0,35,0.00,,---,0.00,VWS V14.01,2013-03-04 22:49:00,
2013-03-04 17:54:00,41.4,15.8,30.02,NW,304,6.0,11.0,35,0.00,,---,0.00,VWS V14.01,2013-03-04 22:54:00,
2013-03-04 17:59:00,41.2,16.3,30.02,NNW,336,4.0,11.0,36,0.00,,---,0.00,VWS V14.01,2013-03-04 22:59:00,
2013-03-04 18:04:00,40.7,16.5,30.02,NW,326,5.0,11.0,37,0.00,,---,0.00,VWS V14.01,2013-03-04 23:04:00,
2013-03-04 18:09:00,40.6,15.8,30.02,NNW,345,7.0,11.0,36,0.00,,---,0.00,VWS V14.01,2013-03-04 23:09:00,
2013-03-04 18:14:00,40.5,15.7,30.02,NW,310,6.0,11.0,36,0.00,,---,0.00,VWS V14.01,2013-03-04 23:14:00,
2013-03-04 18:19:00,40.3,15.5,30.03,NW,323,5.0,11.0,36,0.00,,---,0.00,VWS V14.01,2013-03-04 23:19:00,
2013-03-04 18:24:00,39.8,15.7,30.03,NW,315,5.0,11.0,37,0.00,,---,0.00,VWS V14.01,2013-03-04 23:24:00,
2013-03-04 18:29:00,39.7,15.6,30.03,NNW,337,9.0,11.0,37,0.00,,---,0.00,VWS V14.01,2013-03-04 23:29:00,
2013-03-04 18:34:00,39.4,15.3,30.03,NNW,330,4.0,10.0,37,0.00,,---,0.00,VWS V14.01,2013-03-04 23:34:00,
2013-03-04 18:39:00,39.1,15.6,30.04,NW,313,5.0,10.0,38,0.00,,---,0.00,VWS V14.01,2013-03-04 23:39:00,
2013-03-04 18:44:00,39.0,15.6,30.05,NNW,337,1.0,10.0,38,0.00,,---,0.00,VWS V14.01,2013-03-04 23:44:00,
2013-03-04 18:49:00,38.7,15.9,30.05,NNW,338,3.0,10.0,39,0.00,,---,0.00,VWS V14.01,2013-03-04 23:49:00,
2013-03-04 18:54:00,38.4,15.6,30.05,NW,306,0.0,10.0,39,0.00,,---,0.00,VWS V14.01,2013-03-04 23:54:00,
2013-03-04 18:59:00,38.2,15.4,30.06,NNW,333,1.0,10.0,39,0.00,,---,0.00,VWS V14.01,2013-03-04 23:59:00,
2013-03-04 19:04:00,37.8,16.2,30.06,NNW,333,1.0,2.0,41,0.00,,---,0.00,VWS V14.01,2013-03-05 00:04:00,
2013-03-04 19:09:00,36.7,17.4,30.06,NE,46,0.0,3.0,45,0.00,,---,0.00,VWS V14.01,2013-03-05 00:09:00,
2013-03-04 19:14:00,35.9,16.1,30.06,NE,46,1.0,3.0,44,0.00,,---,0.00,VWS V14.01,2013-03-05 00:14:00,
2013-03-04 19:19:00,35.6,16.4,30.06,NE,49,4.0,4.0,45,0.00,,---,0.00,VWS V14.01,2013-03-05 00:19:00,
2013-03-04 19:24:00,35.3,16.1,30.07,ESE,102,0.0,4.0,45,0.00,,---,0.00,VWS V14.01,2013-03-05 00:24:00,
2013-03-04 19:29:00,35.1,15.4,30.07,ESE,102,3.0,4.0,44,0.00,,---,0.00,VWS V14.01,2013-03-05 00:29:00,
2013-03-04 19:34:00,34.7,15.6,30.07,East,101,1.0,3.0,45,0.00,,---,0.00,VWS V14.01,2013-03-05 00:34:00,
2013-03-04 19:39:00,34.6,15.5,30.07,East,101,0.0,3.0,45,0.00,,---,0.00,VWS V14.01,2013-03-05 00:39:00,
2013-03-04 19:44:00,34.4,15.8,30.08,East,101,0.0,3.0,46,0.00,,---,0.00,VWS V14.01,2013-03-05 00:44:00,
2013-03-04 19:49:00,34.4,15.8,30.08,East,101,0.0,3.0,46,0.00,,---,0.00,VWS V14.01,2013-03-05 00:49:00,
2013-03-04 19:54:00,34.6,15.5,30.08,ESE,123,0.0,3.0,45,0.00,,---,0.00,VWS V14.01,2013-03-05 00:54:00,
2013-03-04 19:59:00,34.8,16.6,30.08,ESE,122,0.0,3.0,47,0.00,,---,0.00,VWS V14.01,2013-03-05 00:59:00,
2013-03-04 20:04:00,34.4,15.8,30.07,ESE,123,0.0,1.0,46,0.00,,---,0.00,VWS V14.01,2013-03-05 01:04:00,
2013-03-04 20:08:00,34.1,16.0,30.08,ESE,123,1.0,1.0,47,0.00,,---,0.00,VWS V14.01,2013-03-05 01:08:00,
2013-03-04 20:13:00,33.7,15.6,30.08,ESE,123,0.0,1.0,47,0.00,,---,0.00,VWS V14.01,2013-03-05 01:13:00,
2013-03-04 20:18:00,33.3,16.2,30.08,ESE,123,0.0,1.0,49,0.00,,---,0.00,VWS V14.01,2013-03-05 01:18:00,
2013-03-04 20:23:00,32.9,16.3,30.08,ESE,122,0.0,1.0,50,0.00,,---,0.00,VWS V14.01,2013-03-05 01:23:00,
2013-03-04 20:28:00,32.3,16.2,30.08,ESE,122,1.0,2.0,51,0.00,,---,0.00,VWS V14.01,2013-03-05 01:28:00,
2013-03-04 20:33:00,31.9,16.7,30.09,South,178,1.0,5.0,53,0.00,,---,0.00,VWS V14.01,2013-03-05 01:33:00,
2013-03-04 20:38:00,31.5,16.4,30.09,South,178,3.0,5.0,53,0.00,,---,0.00,VWS V14.01,2013-03-05 01:38:00,
2013-03-04 20:43:00,32.1,15.6,30.08,South,178,1.0,5.0,50,0.00,,---,0.00,VWS V14.01,2013-03-05 01:43:00,
2013-03-04 20:48:00,32.4,15.9,30.08,South,178,2.0,5.0,50,0.00,,---,0.00,VWS V14.01,2013-03-05 01:48:00,
2013-03-04 20:53:00,33.0,15.9,30.08,South,178,1.0,5.0,49,0.00,,---,0.00,VWS V14.01,2013-03-05 01:53:00,
2013-03-04 20:58:00,33.2,17.0,30.08,South,178,0.0,5.0,51,0.00,,---,0.00,VWS V14.01,2013-03-05 01:58:00,
2013-03-04 21:03:00,32.5,17.3,30.08,South,178,0.0,0.0,53,0.00,,---,0.00,VWS V14.01,2013-03-05 02:03:00,
2013-03-04 21:08:00,31.9,15.8,30.08,South,178,0.0,0.0,51,0.00,,---,0.00,VWS V14.01,2013-03-05 02:08:00,
2013-03-04 21:13:00,31.3,17.0,30.08,South,178,2.0,2.0,55,0.00,,---,0.00,VWS V14.01,2013-03-05 02:13:00,
2013-03-04 21:18:00,30.0,18.2,30.08,South,178,2.0,2.0,61,0.00,,---,0.00,VWS V14.01,2013-03-05 02:18:00,
2013-03-04 21:23:00,29.4,17.2,30.08,South,178,0.0,2.0,60,0.00,,---,0.00,VWS V14.01,2013-03-05 02:23:00,
2013-03-04 21:28:00,29.2,17.1,30.08,South,178,0.0,3.0,60,0.00,,---,0.00,VWS V14.01,2013-03-05 02:28:00,
2013-03-04 21:33:00,29.1,16.6,30.08,South,178,0.0,0.0,59,0.00,,---,0.00,VWS V14.01,2013-03-05 02:33:00,
2013-03-04 21:38:00,29.1,16.6,30.08,South,178,0.0,0.0,59,0.00,,---,0.00,VWS V14.01,2013-03-05 02:38:00,
2013-03-04 21:43:00,28.9,16.4,30.08,South,178,0.0,3.0,59,0.00,,---,0.00,VWS V14.01,2013-03-05 02:43:00,
2013-03-04 21:48:00,28.8,17.1,30.08,South,178,1.0,3.0,61,0.00,,---,0.00,VWS V14.01,2013-03-05 02:48:00,
2013-03-04 21:53:00,28.3,17.7,30.09,South,178,0.0,3.0,64,0.00,,---,0.00,VWS V14.01,2013-03-05 02:53:00,
2013-03-04 21:58:00,27.8,16.9,30.09,South,178,2.0,3.0,63,0.00,,---,0.00,VWS V14.01,2013-03-05 02:58:00,
2013-03-04 22:03:00,27.9,16.6,30.08,South,178,0.0,1.0,62,0.00,,---,0.00,VWS V14.01,2013-03-05 03:03:00,
2013-03-04 22:08:00,27.8,17.2,30.08,South,178,0.0,1.0,64,0.00,,---,0.00,VWS V14.01,2013-03-05 03:08:00,
2013-03-04 22:13:00,27.5,16.9,30.09,South,178,0.0,1.0,64,0.00,,---,0.00,VWS V14.01,2013-03-05 03:13:00,
2013-03-04 22:18:00,27.1,17.3,30.09,South,178,0.0,1.0,66,0.00,,---,0.00,VWS V14.01,2013-03-05 03:18:00,
2013-03-04 22:23:00,26.9,16.7,30.09,South,178,0.0,1.0,65,0.00,,---,0.00,VWS V14.01,2013-03-05 03:23:00,
2013-03-04 22:28:00,26.7,16.9,30.09,South,178,0.0,1.0,66,0.00,,---,0.00,VWS V14.01,2013-03-05 03:28:00,
2013-03-04 22:33:00,26.6,17.1,30.09,South,178,2.0,2.0,67,0.00,,---,0.00,VWS V14.01,2013-03-05 03:33:00,
2013-03-04 22:38:00,26.4,17.6,30.09,South,178,0.0,3.0,69,0.00,,---,0.00,VWS V14.01,2013-03-05 03:38:00,
2013-03-04 22:43:00,26.3,17.5,30.09,South,178,0.0,3.0,69,0.00,,---,0.00,VWS V14.01,2013-03-05 03:43:00,
2013-03-04 22:48:00,26.3,17.5,30.09,South,178,0.0,3.0,69,0.00,,---,0.00,VWS V14.01,2013-03-05 03:48:00,
2013-03-04 22:53:00,26.3,17.9,30.10,South,178,0.0,3.0,70,0.00,,---,0.00,VWS V14.01,2013-03-05 03:53:00,
2013-03-04 22:58:00,26.1,18.0,30.10,South,178,1.0,3.0,71,0.00,,---,0.00,VWS V14.01,2013-03-05 03:58:00,
2013-03-04 23:03:00,26.0,18.2,30.09,South,178,1.0,2.0,72,0.00,,---,0.00,VWS V14.01,2013-03-05 04:03:00,
2013-03-04 23:08:00,25.9,18.1,30.09,South,178,1.0,2.0,72,0.00,,---,0.00,VWS V14.01,2013-03-05 04:08:00,
2013-03-04 23:13:00,26.0,18.5,30.09,South,178,0.0,2.0,73,0.00,,---,0.00,VWS V14.01,2013-03-05 04:13:00,
2013-03-04 23:18:00,26.1,18.6,30.09,South,178,0.0,2.0,73,0.00,,---,0.00,VWS V14.01,2013-03-05 04:18:00,
2013-03-04 23:23:00,26.0,18.9,30.09,South,178,1.0,2.0,74,0.00,,---,0.00,VWS V14.01,2013-03-05 04:23:00,
2013-03-04 23:28:00,25.9,19.1,30.10,South,178,0.0,2.0,75,0.00,,---,0.00,VWS V14.01,2013-03-05 04:28:00,
2013-03-04 23:33:00,25.8,19.0,30.09,South,178,1.0,1.0,75,0.00,,---,0.00,VWS V14.01,2013-03-05 04:33:00,
2013-03-04 23:38:00,25.8,19.3,30.09,South,178,0.0,1.0,76,0.00,,---,0.00,VWS V14.01,2013-03-05 04:38:00,
2013-03-04 23:43:00,26.0,19.5,30.09,South,178,0.0,1.0,76,0.00,,---,0.00,VWS V14.01,2013-03-05 04:43:00,
2013-03-04 23:48:00,26.2,19.4,30.10,South,178,0.0,2.0,75,0.00,,---,0.00,VWS V14.01,2013-03-05 04:48:00,
2013-03-04 23:53:00,26.3,19.5,30.10,South,178,0.0,2.0,75,0.00,,---,0.00,VWS V14.01,2013-03-05 04:53:00,
2013-03-04 23:58:00,26.5,19.7,30.10,South,178,0.0,2.0,75,0.00,,---,0.00,VWS V14.01,2013-03-05 04:58:00,